FENGYUN 1C DEB

Satellite information

Favourite Embed

Satellite Type and Status

DEBRISIN ORBIT

Key statistics

Satellite FENGYUN 1C DEB at a glance.

Uptime

9615

Days in orbit

Revolutions

≈ 14.4

Per day

Orbit

SSO

Sun Synchronous Orbit

Inclination

98.9

Latest

Satellite identification and parameters

Extended collection of information and parameters for FENGYUN 1C DEB.

Object identification

Identified? True

Debris? True

Object name: FENGYUN 1C DEB

International designator: 1999-025AJE

Object number (NORAD): 30516

Object ID (CCSDS): 30516

Country: PEOPLES REPUBLIC OF CHINA (PRC)

Current information (Y/N): Y

RCS size: SMALL

Orbital parameters

Period: 100.04 minutes

Inclination: 98.8561 deg

SMA: 7138.559 km

Apoapsis: 767.83 km

Periapsis: 753.018 km

RAAN: 347.7988 deg

Eccentricy: 0.00103748

Argument of periapsis: 222.0218 deg

Mean anomaly: 201.4262 deg

Mean motion: 14.39417935 rev/day

Mean motion (dot): 0.00008926 rev/day2

B* drag term: 0.0028775749 1/REarth

Two-line elements (TLE)

Creation date: Sept. 4, 2025, 10:13 a.m.

Reference frame: TEME

Reference center: EARTH

Epoch: Sept. 4, 2025, 5:15 a.m. UTC

TLE line 0: 0 FENGYUN 1C DEB

TLE line 1: 1 30516U 99025AJE 25247.21923495 .00008926 00000-0 28776-2 0 9992

TLE line 2: 2 30516 98.8561 347.7988 0010375 222.0218 201.4262 14.39417935962823

Live tracking on map

Real-time ground track for satellite FENGYUN 1C DEB.

In-orbit conjunctions

A list of the most updated potential collisions computed for object FENGYUN 1C DEB.

Target Orbit TCA Probability of collision Miss distance Type
TITAN 3C TRANSTAGE DEB LEO 2025-05-29 08:48:03 0.0001527497 264.0 (m) DEBRIS
IRIDIUM 42 LEO 2025-03-29 15:13:54 0.0002367582 463.0 (m) PAYLOAD
CZ-6A DEB LEO 2024-12-31 18:28:02 0.0001358965 691.0 (m) DEBRIS

Associated space launch

Chinese polar orbiting meteorological satellite

FENGYUN 1C DEB was lifted into orbit during the mission ‘Long March 4B | Feng Yun 1C’, on board a Long March 4B space rocket.

The launch took place on May 10, 1999, 1:33 a.m. from Launch Complex 7.

For more information about the launch, click the button.

Launch to space Long March 4B | Feng Yun 1C
Long March 4B | Feng Yun 1C

Agency: N/A

Status: Launch Successful

Launch date: May 10, 1999, 1:33 a.m. UTC

Rocket: Long March 4B

Launch pad: Launch Complex 7

Location: Taiyuan Satellite Launch Center, People's Republic of China

...

Latest news about this satellite

There are no fresh news available about this satellite. Check back as we update our databases every day.


Newsletter sign-up

Weekly statistics, charts and insights to help you stay on top of the space industry.